Regional Weather Roundup
Issued by NWS

Home | Current Version | Previous Version | Graphics & Text | Print | Product List | Glossary On
Versions: 1 2 3 4 5 6 7 8 9 10 11 12 13 14 15 16 17 18 19 20 21 22 23 24 25 26 27 28 29 30 31 32 33 34 35 36 37 38 39 40 41 42 43 44 45 46 47 48 49 50
000
ASUS45 KPSR 230400
RWRAZ

ARIZONA HOURLY REGIONAL WEATHER ROUNDUP
NATIONAL WEATHER SERVICE PHOENIX AZ
900 PM MST FRI MAY 22 2015

NOTE: FAIR INDICATES FEW OR NO CLOUDS BELOW 12,000 FEET WITH NO
SIGNIFICANT WEATHER AND/OR OBSTRUCTIONS TO VISIBILITY.

AZZ001>003-036-230500-
NORTHWEST ARIZONA

CITY           SKY/WX    TMP DP  RH WIND       PRES   REMARKS
KINGMAN        CLOUDY    54  42  64 E5        29.95R
$$

AZZ004>008-015-016-018-230500-
NORTH CENTRAL ARIZONA

CITY           SKY/WX    TMP DP  RH WIND       PRES   REMARKS
GRAND CANYON   MOCLDY    34  33  96 CALM      30.04R
WILLIAMS       CLOUDY    37  36  93 S6        30.10R WCI  33
PRESCOTT       CLOUDY    52  32  46 NW8       30.00R
FLAGSTAFF      NOT AVBL
PAYSON         MOCLDY    54  30  40 SW12      30.03R
PAGE           MOCLDY    55  36  48 NW6       29.95R
$$

AZZ009>014-017-230500-
NORTHEAST ARIZONA

CITY           SKY/WX    TMP DP  RH WIND       PRES   REMARKS
WINSLOW        NOT AVBL
SAINT JOHNS    MOCLDY    57  25  29 SW15G22   29.99R
WINDOW ROCK    CLOUDY    53  19  26 SW12G17   30.03R
$$

AZZ023-230500-
GREATER PHOENIX AREA

CITY           SKY/WX    TMP DP  RH WIND       PRES   REMARKS
PHOENIX        CLEAR     73  33  23 W8        29.89R
DEER VALLEY    CLEAR     69  33  26 SW9       29.90R
SCOTTSDALE     CLEAR     71  32  23 SW8       29.92R
MESA-GATEWAY   CLEAR     72  36  26 W10       29.93R
CHANDLER       PTCLDY    72  34  25 W12       29.91R
$$

AZZ027-028-230500-
SOUTHWEST MARICOPA COUNTY AND PINAL COUNTY

CITY           SKY/WX    TMP DP  RH WIND       PRES   REMARKS
CASA GRANDE    CLEAR     70  36  28 W8        29.91R
$$

AZZ503-504-507>509-230500-
SOUTHEAST ARIZONA

CITY           SKY/WX    TMP DP  RH WIND       PRES   REMARKS
TUCSON         MOCLDY    70  34  26 W9        29.98R
NOGALES        PTCLDY    62  37  39 SW10      30.02R
SAFFORD        PTCLDY    69  31  24 NW14      29.90R
$$

AZZ020-021-025-026-031-230500-
SOUTHWEST ARIZONA

CITY           SKY/WX    TMP DP  RH WIND       PRES   REMARKS
YUMA           CLEAR     69  44  40 W12       29.93R
$$

CAZ031-033-041-043-047-048-061-230500-
SOUTHERN CALIFORNIA

CITY           SKY/WX    TMP DP  RH WIND       PRES   REMARKS
DOWNTOWN L.A.  CLOUDY    62  52  69 CALM      30.05R
L.A. AIRPORT   CLOUDY    60  53  77 SW12      30.06R
SAN DIEGO      MOCLDY    62  55  77 CALM      30.10R
BURBANK        CLOUDY    61  50  67 S6        30.05R
ONTARIO        LGT RAIN  56  52  86 NW5       30.06R
RIVERSIDE      LGT RAIN  60  51  72 VRB3      30.06R
PALM SPRINGS   CLEAR     70  41  34 NW17      29.92R
EL CENTRO NAS  CLEAR     67  45  45 W25G33    29.95R
IMPERIAL       CLEAR     66  46  48 W18G26    29.92R
BLYTHE         CLEAR     71  46  40 SW16      29.87S
$$

NVZ020-UTZ003-230500-
SOUTHERN NEVADA-UTAH

CITY           SKY/WX    TMP DP  RH WIND       PRES   REMARKS
LAS VEGAS      NOT AVBL
SALT LAKE CITY MOCLDY    56  41  57 SE6       29.90R
$$

NMZ009-TXZ055-230500-
NEW MEXICO-WEST TEXAS

CITY           SKY/WX    TMP DP  RH WIND       PRES   REMARKS
ALBUQUERQUE    PTCLDY    66  28  24 SE14      29.93R
EL PASO        CLOUDY    82  11   7 W18G28    29.90R
$$


........................KEY........................
SKY/WX - SKY CONDITION/WEATHER
TMP    - TEMPERATURE IN FAHRENHEIT
DP     - DEW POINT IN FAHRENHEIT
RH     - RELATIVE HUMIDITY IN PERCENT
WIND   - DIRECTION AND SPEED IN MILES PER HOUR (MPH)
VRB    - VARIABLE WIND DIRECTION
PRES   - MEAN SEA LEVEL PRESSURE IN INCHES OF MERCURY
         F - FALLING PRESSURE   R - RISING PRESSURE
         S - STEADY PRESSURE
VSB    - VISIBILITY IN MILES
HX     - HEAT INDEX IN FAHRENHEIT
WCI    - WIND CHILL INDEX IN FAHRENHEIT
TC     - TEMPERATURE IN CELSIUS WHICH IS ALSO KNOWN AS
         TEMPERATURE IN CENTIGRADE
AFB    - AIR FORCE BASE
         LUKE AFB IS LUKE AIR FORCE BASE
         DAVIS-MONTHAN IS DAVIS-MONTHAN AIR FORCE BASE
NAS    - NAVAL AIR STATION
         EL CENTRO NAS IS EL CENTRO NAVAL AIR STATION
N/A    - NOT AVAILABLE




USA.gov is the U.S. government's official web portal to all federal, state and local government web resources and services.